Tracking 35275 objects as of 9-Sep-2026
HD Live streaming from Space Station
objects crossing your sky now

COSMOS 1408 DEB


COSMOS 1408 DEB is no longer on orbit


NORAD ID: 50303
Int'l Code: 1982-092ZU
Launch date: September 16, 1982
Source: Commonwealth of Independent States (former USSR) (CIS)
Launch site: PLESETSK MISSILE AND SPACE COMPLEX (PKMTR)
Decay date: 2022-09-02

Note: This is SATELLITE DEBRIS
Your satellite tracking list
Your tracking list is empty




NASA's NSSDC Master Catalog

Two Line Element Set (TLE):
1 50303U 82092ZU  22247.44511317  .03642555  12226-1  19169-1 0  9996
2 50303  83.6678 250.1570 0039418 155.8290 204.4844 15.82513754 43099
Source of the keplerian elements: AFSPC